CZ-6A DEB, 54308

Orbit data source: Space-Track

CZ-6A DEB, 54308 is space debris in SSO originally from a launch on Fri, 11 Nov 2022 UTC launched from the Taiyaun Space Center, China (TSC). Debris objects in space refer to the collection of defunct objects orbiting the Earth. Examples of debris include non-operational satellites, rocket bodies, and fragments generated from explosions, collisions, or faulty payload assembly.

Loading next visibility...
Identifier
54308, 2022-151BB
Orbit
SSO
Country
Flag of CNCN / PRC
Related business
Manufacturer
SAST
Mission
Spacecraft
Bus & Motor
Unknown
Mass
Unknown
Launch date (UTC)
2022-11-11 (4 years ago)
Launch vehicle
Unknown
Launch site
Taiyaun Space Center, China (TSC)
Object type
Payload
Rocket body
Debris
Shape & HBR
Unknown shape, 0.1 m
Radar Cross Section
Small (<0.1 m²)

Expand to show TLE details & history
Last TLE update: 20 hours ago

TLE from 20 hours ago
0 CZ-6A DEB
1 54308U 22151BB  26144.19242551  .00040582  00000-0  29613-2 0  9999
2 54308  98.6329 225.2159 0032886 313.4010  46.4475 15.03126155187302
Epoch: 2026-05-24T04:37Z
TLE epoch observation values (Epoch: 2026-05-24T04:37:05.564Z)
Latitude
0.00001°
Longitude
-85.85538°
Altitude
544.615 km
Speed
7.598 km/s
True Right ascension
15h 00m 51s
True Declination
0° 00' 00"
Sunlit
Object was in full shadow at epoch
Visualization orbit readout
Latitude
Unknown
Longitude
Unknown
Altitude
Unknown
Speed
Unknown
Apparent Right ascension
Unknown
Apparent Declination
Unknown
Sunlit
N/A
Visualization observer readout
Local Sidereal Time
10:16:40
Azimuth
Unknown
Elevation
Unknown
Doppler factor
Unknown
Orbital elements
Apogee altitude
577.106 km
Perigee altitude
531.51 km
Semi-major axis
6,932.445 km
Eccentricity
0.00329
Inclination
98.6329°
RAAN
225.2159°
Arg. of periapsis
313.401°
True anomaly
46.72139°
Mean anomaly
46.4475°
Eccentric anomaly
46.58437°
Mean motion
3.76022 °/min
Orbital period
95.74 mins
BSTAR
0.0029613
Loading maneuver chart data...
Computing Atmospheric mass density...
Loading historical data...
Loading historical data...
Loading historical data...
Loading historical data...
Loading historical data...
Loading historical data...
Loading historical data...

Documentation

Showing up to 5 results
|